{"data":{"norad_id":52660,"epoch":"2026-09-19T12:56:34.337184Z","epoch_age_seconds":149462,"freshness":"FRESH","line1":"1 52660U 22053E   26262.53928631  .00000503  00000+0  27963-4 0  9994","line2":"2 52660  53.1616 350.2784 0001263  89.6170 270.4976 15.31704753240563","mean_motion":15.31704753,"eccentricity":0.0001263,"inclination_deg":53.1616,"raan_deg":350.2784,"arg_perigee_deg":89.617,"mean_anomaly_deg":270.4976,"bstar":2.7963e-5,"rev_number":24056,"period_min":94.012896230792,"perigee_km":469.86081544158,"apogee_km":471.59083819164,"semimajor_km":6848.8628268166,"source":"CELESTRAK","updated_at":"2026-09-20T09:00:40.100838Z"}}